Wind_Speed
21 18 20 38 39 38 33 31 26 24 20 14 11 15 14 14 14 13 14 13 12 14 13 11 11 11 10 10 10 9 7 5 4 6 9 13 15 17 20 19 21 21 21
28 28 27 27 37 42 36 40 37 27 24 14 15 16 16 16 16 15 14 13 12 11 12 10 10 10 10 10 9 9 10 10 9 10 11 12 12 13 16 18 20 19 18
32 35 26 18 19 36 45 27 44 27 23 15 17 20 19 17 18 17 16 14 12 11 12 11 11 10 10 10 9 9 9 11 9 10 13 13 13 13 15 14 14 14 14
28 27 27 28 24 32 34 38 40 21 21 18 20 21 20 19 20 20 17 15 15 11 9 9 11 12 13 12 10 10 10 10 12 11 11 13 14 13 15 15 15 14 14
25 27 26 23 29 28 32 23 27 20 27 22 22 22 21 22 21 21 15 17 16 11 10 7 9 10 11 13 14 13 11 11 12 13 12 14 14 13 12 17 16 15 15
21 16 12 13 12 14 20 26 25 28 33 30 27 24 22 23 20 21 17 18 17 12 10 7 6 6 8 12 15 16 18 15 13 14 14 14 16 14 13 14 17 18 17
15 21 20 15 18 13 10 15 27 35 36 32 27 24 22 23 20 20 18 18 15 13 13 9 8 9 10 12 14 15 16 18 15 13 12 16 17 14 14 14 16 18 17
18 15 14 15 14 14 17 19 26 30 25 25 26 24 24 23 21 21 21 21 20 17 15 14 12 12 13 15 15 14 13 15 16 16 14 16 18 17 15 16 16 15 17
8 5 6 6 5 3 2 16 25 28 26 25 25 26 28 25 27 27 24 26 29 22 19 17 15 15 18 16 17 17 15 14 19 19 18 15 17 19 18 17 16 18 18
3 6 5 7 8 8 5 9 20 27 28 27 25 24 26 27 30 37 37 31 34 35 26 21 20 19 20 20 20 22 21 17 18 20 21 19 20 21 19 18 19 19 19
1 4 5 5 6 5 6 7 12 13 22 28 26 33 36 32 24 20 25 29 30 31 21 23 22 22 26 25 25 26 26 25 25 22 22 22 22 22 19 18 18 19 18
2 2 2 2 5 8 5 4 6 6 3 14 19 15 11 15 33 36 30 30 28 35 34 31 31 31 31 31 31 30 30 30 31 30 27 25 23 23 21 21 20 20 19
7 7 8 10 6 8 6 6 6 8 11 15 18 21 27 28 24 24 32 39 47 48 45 38 37 39 38 39 38 37 34 32 32 34 31 29 26 25 25 25 23 22 21
10 11 12 13 13 14 11 13 10 10 14 17 21 23 27 30 31 32 33 35 38 38 34 42 45 43 41 41 42 43 39 37 35 34 34 31 30 30 28 27 24 23 22
12 12 11 10 9 12 16 18 23 23 22 25 27 26 28 31 31 33 35 38 38 37 37 41 44 44 45 43 41 41 42 42 43 38 34 31 30 32 32 28 27 27 27
10 11 11 11 14 13 13 13 16 18 20 19 21 22 24 25 26 28 30 33 35 37 38 39 40 40 37 33 33 33 37 40 39 38 36 35 32 32 32 32 29 31 28
9 10 12 13 11 11 12 16 16 15 14 14 15 16 16 18 20 22 22 24 27 31 33 33 34 33 30 28 28 28 31 31 31 33 33 35 36 34 34 35 31 33 29
10 10 10 9 9 9 10 13 15 15 16 17 18 17 14 17 19 20 21 23 24 27 27 28 29 29 28 28 28 27 26 28 29 31 30 34 39 31 37 39 33 31 29
9 9 9 7 1 2 3 6 11 15 13 15 18 17 17 18 20 21 22 22 23 24 26 28 28 27 28 27 27 28 29 30 30 31 33 33 35 36 41 41 33 28 25
8 10 9 8 11 13 12 15 17 16 16 22 22 21 20 21 21 23 23 23 22 24 25 26 28 27 29 30 29 29 28 30 29 31 35 32 35 41 40 38 38 32 27
12 14 14 12 14 14 11 12 16 21 23 19 21 20 21 23 23 22 21 21 22 23 23 23 24 28 27 28 28 28 28 21 18 27 29 34 40 32 24 32 32 34 35
12 15 13 13 13 16 20 20 23 25 25 25 23 22 22 21 22 21 20 22 20 18 19 20 22 21 24 25 25 24 29 28 19 22 27 29 27 33 31 36 35 31 32
12 13 12 11 16 18 20 22 19 16 17 22 22 22 21 21 19 17 15 17 24 21 16 13 12 14 16 24 25 23 26 29 30 29 30 36 29 32 28 30 32 34 34
12 15 14 18 19 20 23 19 18 16 18 17 18 18 16 16 17 16 14 11 16 15 11 8 7 7 5 10 13 14 15 22 23 27 25 16 17 20 20 19 23 26 28
14 16 14 16 22 25 23 20 18 17 16 18 16 15 17 17 15 14 13 18 11 9 8 4 6 5 17 14 16 12 24 21 15 13 20 16 12 11 11 14 16 16 17
14 12 8 10 18 24 20 22 24 18 20 24 23 20 19 20 20 18 15 15 12 14 13 10 5 3 4 7 7 5 4 9 10 9 6 11 14 13 15 17 18 18 16
Wind_Direction
267 267 256 235 235 236 230 230 235 231 236 247 238 215 209 216 216 224 225 231 235 244 236 231 233 244 250 257 259 259 261 258 269 275 280 257 252 273 267 272 264 269 271
260 251 241 234 228 236 237 235 200 214 233 227 231 229 216 219 223 224 228 225 227 234 251 248 254 267 274 267 258 256 254 250 233 231 241 263 266 271 268 266 266 269 275
251 232 240 317 245 243 237 271 173 192 215 225 236 233 224 219 227 224 229 231 217 224 237 247 241 249 266 273 268 270 263 258 263 252 247 252 258 265 267 268 270 272 273
261 272 297 301 289 278 280 278 248 238 208 220 227 233 230 226 229 230 225 231 233 223 240 275 283 280 280 274 273 267 258 257 256 258 260 266 272 271 270 270 272 278 282
255 265 275 266 259 261 261 269 267 270 223 228 234 224 228 229 230 234 232 233 241 226 228 274 303 296 275 280 283 275 267 258 259 259 257 257 269 272 265 259 267 273 279
249 229 251 273 273 262 249 242 217 214 200 217 216 219 222 232 231 235 230 241 236 225 228 232 269 290 277 286 289 294 273 260 260 270 274 269 269 271 276 279 276 278 272
235 275 270 293 291 299 292 245 207 202 210 222 218 219 226 230 228 236 230 225 221 226 241 252 272 291 294 297 292 298 288 255 259 264 275 264 263 262 262 263 267 268 272
270 274 273 283 295 276 258 220 197 204 218 214 218 222 224 222 228 235 244 236 232 236 244 255 265 278 288 293 293 295 292 260 260 261 267 264 264 265 263 265 268 265 269
269 268 263 257 293 342 147 203 207 207 211 219 234 227 222 221 219 235 247 248 237 238 250 262 275 282 280 282 287 284 279 273 265 267 273 274 269 268 269 267 265 270 269
241 314 312 287 287 320 305 230 223 231 229 229 228 226 224 223 229 239 237 244 245 244 241 251 262 271 273 276 280 278 275 276 272 267 262 265 265 265 266 267 268 268 270
347 317 314 297 267 259 266 248 248 255 245 234 239 234 241 228 230 233 244 252 252 256 244 262 258 262 268 272 275 277 279 271 268 265 262 263 261 264 268 270 266 268 268
268 281 226 276 293 264 248 255 244 192 181 234 242 247 258 261 248 246 262 262 269 261 258 268 268 269 268 270 269 271 269 268 266 265 265 264 265 265 266 266 260 262 262
281 267 255 255 268 255 227 246 215 236 265 256 254 253 250 249 251 245 250 261 263 273 257 253 265 269 273 274 271 271 265 262 258 259 263 264 264 263 257 260 264 263 259
272 274 282 282 265 253 254 246 286 260 264 272 277 275 269 264 261 261 259 258 256 265 250 248 261 263 266 267 265 269 268 266 262 259 261 266 261 256 252 254 259 259 256
294 297 298 288 276 266 260 244 241 259 267 266 273 281 279 278 275 268 267 266 265 262 257 255 261 268 271 271 267 265 263 253 258 259 259 258 255 255 255 249 247 249 254
303 301 302 304 304 300 289 274 263 262 267 272 275 277 274 274 275 275 273 269 269 268 265 265 264 267 270 268 264 260 259 260 260 256 249 252 252 250 253 246 238 238 244
332 318 311 307 306 304 302 298 300 308 300 291 284 287 288 284 282 283 285 280 272 269 272 271 272 273 269 264 262 258 256 256 254 249 242 246 245 253 244 247 237 227 232
316 321 319 305 313 319 315 312 303 300 301 304 295 295 300 301 300 297 292 289 284 278 275 271 269 264 257 256 261 262 265 267 258 249 242 237 237 246 245 238 235 226 228
320 312 305 302 272 270 295 306 298 295 307 303 295 297 303 308 311 308 306 296 287 289 278 273 269 264 259 259 264 266 267 265 260 244 242 226 232 246 238 238 227 224 219
314 303 304 291 282 294 294 293 302 298 311 300 302 295 297 303 306 307 304 304 295 293 290 276 262 261 259 258 262 267 266 260 251 246 242 238 236 233 226 216 226 226 219
323 321 319 301 301 285 284 287 287 293 296 299 308 301 296 296 298 301 300 299 299 293 291 284 275 261 261 264 263 261 257 252 252 243 241 232 226 215 220 217 219 223 228
315 309 313 310 302 291 284 274 273 278 289 297 302 302 300 300 299 302 300 301 295 299 296 287 273 268 255 251 258 269 259 258 256 238 229 230 239 226 242 215 206 221 222
308 312 310 319 328 319 299 299 300 291 280 288 297 302 305 305 309 311 315 310 307 310 319 301 305 265 262 252 246 266 261 254 243 232 237 216 227 210 208 219 231 238 243
306 315 337 337 340 338 325 320 327 293 288 299 302 302 310 313 313 322 319 306 315 322 344 321 273 222 180 200 196 207 197 190 180 185 188 196 199 217 232 240 234 241 243
290 304 312 333 328 330 333 334 345 343 318 301 301 299 300 305 311 311 312 321 300 301 308 29 45 334 254 249 262 204 188 203 234 253 248 250 209 201 214 195 183 180 188
268 275 284 302 303 315 321 324 330 322 327 333 323 299 299 299 298 300 298 290 295 286 281 280 261 264 10 37 42 356 343 98 93 108 151 170 172 177 179 182 190 198 206
Height
3105 3109 3109 3111 3115 3117 3123 3124 3131 3133 3132 3135 3137 3139 3138 3141 3142 3145 3145 3147 3148 3151 3150 3149 3149 3149 3149 3148 3148 3147 3147 3148 3149 3151 3151 3152 3154 3154 3154 3154 3156 3157 3158
3097 3101 3101 3103 3104 3110 3114 3110 3102 3122 3131 3129 3133 3137 3136 3137 3139 3141 3142 3144 3145 3147 3149 3148 3148 3148 3147 3146 3144 3144 3144 3144 3146 3147 3149 3150 3149 3150 3150 3151 3151 3153 3152
3086 3081 3092 3072 3091 3102 3101 3101 3068 3113 3122 3119 3127 3132 3132 3132 3135 3137 3138 3141 3141 3141 3144 3145 3144 3143 3144 3143 3142 3142 3142 3142 3143 3145 3145 3145 3146 3146 3146 3147 3147 3148 3148
3081 3071 3071 3076 3087 3094 3096 3096 3096 3110 3113 3112 3120 3125 3125 3127 3130 3132 3136 3136 3138 3137 3140 3142 3142 3140 3140 3140 3139 3139 3139 3139 3139 3140 3141 3141 3142 3142 3142 3143 3143 3144 3144
3080 3078 3075 3081 3085 3089 3090 3094 3096 3102 3104 3111 3118 3119 3120 3122 3125 3128 3131 3134 3135 3134 3135 3137 3138 3137 3136 3136 3136 3136 3136 3136 3136 3136 3136 3136 3136 3137 3138 3137 3138 3139 3140
3075 3077 3077 3077 3078 3080 3080 3080 3086 3093 3097 3106 3109 3113 3114 3117 3119 3124 3126 3128 3131 3130 3132 3131 3132 3133 3132 3132 3132 3132 3131 3130 3130 3131 3132 3132 3132 3133 3133 3134 3134 3135 3135
3071 3070 3071 3073 3074 3072 3074 3079 3082 3090 3095 3098 3101 3106 3108 3112 3115 3116 3121 3122 3124 3125 3128 3127 3127 3128 3127 3127 3127 3126 3126 3126 3126 3126 3126 3126 3126 3127 3128 3129 3129 3129 3129
3068 3068 3067 3067 3067 3067 3068 3074 3080 3085 3090 3092 3094 3096 3101 3106 3108 3111 3114 3116 3117 3118 3120 3121 3121 3121 3122 3122 3122 3122 3120 3121 3122 3122 3121 3121 3121 3122 3123 3123 3123 3123 3123
3067 3068 3068 3069 3067 3068 3069 3073 3076 3081 3083 3088 3090 3092 3095 3098 3100 3103 3106 3109 3110 3111 3112 3113 3114 3116 3116 3115 3116 3116 3117 3116 3116 3117 3117 3117 3117 3117 3117 3117 3117 3117 3118
3067 3067 3068 3068 3068 3069 3071 3074 3077 3079 3080 3083 3086 3088 3091 3092 3094 3097 3101 3102 3103 3102 3103 3105 3106 3109 3110 3109 3108 3109 3110 3110 3110 3111 3111 3111 3111 3111 3112 3113 3112 3112 3112
3067 3067 3067 3068 3070 3070 3072 3072 3074 3075 3076 3078 3081 3083 3082 3085 3086 3090 3091 3093 3094 3091 3092 3097 3099 3101 3102 3101 3100 3100 3101 3103 3102 3104 3104 3104 3105 3106 3107 3107 3107 3106 3107
3067 3067 3067 3068 3069 3069 3069 3070 3071 3072 3071 3071 3075 3073 3076 3078 3080 3081 3081 3083 3084 3086 3088 3089 3089 3090 3091 3091 3092 3094 3094 3093 3093 3094 3095 3096 3097 3098 3100 3100 3101 3101 3101
3066 3067 3067 3066 3066 3065 3064 3067 3067 3067 3068 3069 3070 3071 3072 3072 3073 3075 3073 3074 3073 3074 3075 3079 3081 3080 3080 3080 3081 3083 3085 3085 3084 3085 3087 3088 3090 3091 3092 3092 3094 3094 3094
3063 3063 3063 3064 3063 3062 3062 3061 3060 3061 3063 3064 3064 3064 3065 3065 3064 3065 3064 3063 3064 3063 3062 3067 3070 3070 3069 3068 3069 3071 3072 3073 3073 3074 3077 3079 3079 3080 3083 3085 3087 3087 3087
3061 3060 3060 3059 3059 3058 3058 3057 3057 3056 3056 3056 3057 3055 3055 3054 3053 3054 3051 3051 3051 3051 3053 3055 3055 3056 3056 3056 3056 3058 3058 3060 3061 3065 3067 3068 3070 3071 3073 3077 3078 3079 3080
3057 3056 3056 3055 3053 3053 3053 3052 3050 3050 3050 3050 3050 3049 3049 3048 3046 3043 3041 3041 3040 3040 3040 3043 3044 3043 3043 3044 3044 3045 3044 3045 3049 3052 3055 3057 3059 3061 3065 3067 3069 3072 3073
3055 3053 3052 3052 3052 3049 3047 3045 3046 3046 3046 3045 3045 3045 3043 3039 3039 3036 3034 3033 3032 3030 3030 3031 3031 3030 3030 3031 3031 3032 3033 3035 3035 3036 3040 3045 3048 3051 3055 3057 3060 3063 3065
3051 3050 3048 3047 3047 3045 3044 3044 3043 3041 3041 3039 3038 3039 3038 3036 3031 3028 3027 3025 3023 3022 3022 3022 3020 3020 3019 3020 3021 3022 3023 3024 3024 3026 3029 3032 3036 3040 3043 3046 3050 3054 3058
3048 3046 3045 3044 3042 3040 3039 3041 3040 3037 3037 3035 3034 3033 3031 3028 3024 3023 3020 3018 3016 3014 3011 3011 3010 3011 3012 3012 3011 3012 3012 3014 3014 3015 3019 3022 3025 3030 3033 3035 3041 3045 3047
3045 3043 3042 3040 3037 3035 3034 3034 3032 3031 3032 3031 3029 3027 3024 3023 3020 3018 3014 3010 3008 3005 3002 3002 3003 3002 3005 3004 3004 3005 3005 3005 3006 3006 3009 3012 3015 3019 3020 3024 3030 3036 3041
3041 3039 3038 3036 3035 3033 3033 3032 3029 3028 3025 3025 3024 3022 3021 3019 3015 3010 3009 3005 3002 2998 2993 2994 2995 2992 2993 2994 2994 2996 2997 2997 2998 2999 3001 3004 3006 3009 3012 3020 3023 3027 3031
3039 3037 3035 3033 3032 3029 3027 3028 3025 3024 3022 3018 3018 3017 3013 3010 3008 3004 3001 2997 2995 2992 2989 2988 2985 2984 2984 2986 2987 2986 2987 2990 2992 2995 2995 2997 3000 3004 3008 3012 3015 3020 3023
3036 3034 3032 3030 3028 3026 3024 3021 3020 3017 3016 3015 3013 3010 3006 3004 3001 2998 2996 2992 2992 2985 2982 2980 2978 2977 2976 2979 2979 2979 2981 2982 2984 2987 2990 2990 2992 2995 2999 3005 3008 3011 3013
3032 3030 3027 3026 3025 3023 3019 3016 3014 3012 3011 3009 3007 3004 3001 3000 2997 2995 2994 2990 2988 2983 2979 2979 2979 2975 2974 2975 2975 2974 2976 2978 2977 2978 2980 2983 2984 2989 2990 2993 2997 3003 3007
3027 3026 3024 3023 3022 3019 3015 3012 3011 3009 3006 3004 3003 3002 3000 2998 2996 2992 2989 2986 2984 2985 2981 2978 2977 2977 2975 2972 2974 2971 2971 2972 2975 2976 2977 2979 2980 2980 2984 2988 2994 2998 3002
3023 3022 3020 3019 3018 3016 3014 3010 3008 3006 3003 3000 2997 2995 2993 2991 2990 2988 2987 2985 2984 2983 2981 2980 2980 2979 2976 2975 2975 2974 2972 2971 2975 2977 2977 2979 2981 2983 2987 2990 2994 2997 3000